Powrót do katalogu

ECHOSTAR 14

AktywnyŁącznośćGEO
NORAD 36499·PAYLOAD·🇺🇸 United States

Wystrzelony Mar 20, 2010 z Baikonur Cosmodrome

Loading…

TLE

ŚwieżeSource: Space-Track

Epoka: Sep 14, 2026, 13:14 UTC

1 36499U 10010A   26257.55157079 -.00000009  00000-0  00000-0 0  9994
2 36499   0.0320 262.3285 0002095 270.8729 259.9940  1.00281130 47440

Śledź ECHOSTAR 14 w czasie rzeczywistym z AllMySat

Download on the App Store